Home   Weather   Allschwil   Past weeks

Flag for Switzerland Past Weather in Allschwil, Basel-Land, Switzerland — Yesterday and Last 2 Weeks

Now
34 °F

Chilly.


Feels Like: 34 °F
Forecast: 41 / 60 °F
Wind: 2 mph from Northwest

Location: Bale-Mulhouse

Current Time: Apr 24, 2017 at 4:01:39 am

Latest Report: Apr 24, 2017 at 3:00 am


Visibility: 31 mi

Pressure: 30.19 "Hg

Humidity: 76%

Dew Point: 27 °F

Location of AllschwilLocation

Past Weather in Allschwil — Graph

°F

Allschwil Temperature Yesterday

Maximum temperature yesterday: 58 °F (at 5:00 pm)
Minimum temperature yesterday: 41 °F (at 6:00 am)
Average temperature yesterday: 49 °F

High & Low Weather Summary for the Past Weeks

 TemperatureHumidityPressure
High77 °F (Apr 9, 5:00 pm)97% (Apr 18, 3:00 am)30.58 "Hg (Apr 18, 3:00 am)
Low25 °F (Apr 20, 7:00 am)19% (Apr 21, 6:00 pm)29.96 "Hg (Apr 13, 6:00 pm)
Average49 °F63%30.22 "Hg
* Reported Apr 9 2:00 am — Apr 24 2:00 am, Allschwil, Weather by CustomWeather, © 2017

Note: Actual official high and low records may vary slightly from our data, if they occured in-between our weather recording intervals... More about our weather records

Advertising

Allschwil Weather History for the Previous 24 Hours

Scroll right to see more
 ConditionsComfort  
Time TempWeatherWind HumidityBarometerVisibility
2:00 am
Mon, Apr 24
35 °FChilly.5 mph74%30.20 "Hg34 mi
1:00 am35 °FChilly.7 mph72%30.22 "Hg34 mi
12:00 am38 °FPassing clouds.7 mph66%30.21 "Hg37 mi
11:00 pm
Sun, Apr 23
42 °FQuite cool.6 mph59%30.21 "Hg37 mi
10:00 pm45 °FPassing clouds.8 mph50%30.21 "Hg37 mi
9:00 pm48 °FPassing clouds.8 mph45%30.19 "Hg37 mi
8:00 pm52 °FPassing clouds.8 mph37%30.18 "Hg37 mi
7:00 pm55 °FScattered clouds.10 mph30%30.17 "Hg37 mi
6:00 pm57 °FScattered clouds.12 mph33%30.17 "Hg37 mi
5:00 pm58 °FPassing clouds.10 mph32%30.18 "Hg31 mi
4:00 pm57 °FPassing clouds.9 mph34%30.19 "Hg28 mi
3:00 pm56 °FScattered clouds.8 mph36%30.21 "Hg28 mi
2:00 pm55 °FScattered clouds.9 mph41%30.22 "Hg28 mi
1:00 pm53 °FScattered clouds.7 mph41%30.24 "Hg22 mi
12:00 pm52 °FPartly sunny.8 mph44%30.26 "Hg11 mi
11:00 am50 °FPartly sunny.10 mph51%30.26 "Hg11 mi
10:00 am47 °FPartly sunny.12 mph62%30.27 "Hg8 mi
9:00 am44 °FPartly sunny.10 mph82%30.28 "Hg7 mi
8:00 am42 °FLow clouds.7 mph90%30.28 "Hg6 mi
7:00 am41 °FOvercast.9 mph92%30.27 "Hg7 mi
6:00 am41 °FOvercast.9 mph93%30.25 "Hg7 mi
5:00 am43 °FPassing clouds.9 mph86%30.25 "Hg12 mi
4:00 am45 °FOvercast.7 mph79%30.24 "Hg17 mi
Weather by CustomWeather, © 2017

See weather overviewHow to use our weather pages